Find Starlink 4359

NORAD ID: 53226 Int'l Des: 2022-084 Owner: SPXS Country: US Constellation: starlink operational
LEOCIRCULARRETROGRADESSO

現在のビュー

3D地球を読み込み中...

Starlink 4359について

説明を読み込み中...

次回通過

Passes for default location (London). Set your location on the main map for personalized predictions.

高度履歴

Loading altitude history...

軌道要素

1 53226U 22084AP 26150.06162447 .00040282 00000-0 27939-2 0 9996
2 53226 97.4256 209.8157 0002561 176.9390 183.1853 15.05464001211553
Epoch: May 30, 2026 • Age: 10 hours

現在のステータス

高度 561.9 km
速度 7.59 km/s
衛星直下点 65.23°N, 135.76°E
打ち上げ日 Jul 22, 2022
運用期間 3.8 years
タイプ internet

技術仕様

分類 Payload
質量 297.00 kg
乾燥質量 275.00 kg
総質量 297.00 kg
長さ 0.20 m
直径 2.80 m
スパン 9.00 m
形状 Box + pan
製造者 SPXS
バスタイプ Starlink
フェーズステータス In Orbit
所有者/国 SPXS/US

Most Searched